Temp_Advection
nan nan nan nan nan nan nan nan nan nan nan nan nan nan nan nan nan nan nan nan nan nan nan nan nan nan nan nan nan nan nan nan nan nan nan nan nan nan nan nan nan nan nan nan
nan -1 -0 -0 -0 0 0 0 0 -0 -0 -0 0 0 -0 -0 0 -0 0 0 0 0 0 0 0 0 -0 -0 -0 -0 -0 -0 -0 -0 0 0 0 0 0 0 -0 -0 0 nan
nan -0 0 0 0 -0 0 0 -0 -0 -0 -0 -0 -0 -0 0 0 0 0 0 0 0 0 0 0 -0 -0 -0 -0 -0 -0 -0 -0 -0 -0 -0 0 0 -0 -0 -0 -0 -0 nan
nan 0 0 0 -0 -0 0 -0 -0 -0 -0 0 -0 0 -0 0 0 0 1 0 0 0 0 0 0 -0 -0 -0 -0 -0 -0 -0 -1 -0 -0 -0 -0 -0 -0 -0 -0 -0 -0 nan
nan 0 -0 -0 -0 0 -0 -0 0 0 0 -0 -0 0 -0 0 0 0 0 1 0 0 0 -0 -0 -0 -0 -0 -0 -0 -0 -0 -0 -0 -0 -0 -0 -0 -0 -0 -0 -0 -0 nan
nan 0 -0 -0 -0 0 0 -0 -0 -0 -0 -0 -0 0 0 -0 -0 -0 -0 0 0 0 -0 -0 -0 -0 -0 -0 -0 -0 -0 -0 -0 -0 -0 -0 -0 -0 -0 -0 -0 -0 0 nan
nan 0 0 0 -0 -0 -0 -0 -0 0 0 -0 0 0 -1 0 0 -1 -1 -0 0 0 -0 -0 -0 -0 -0 -0 -0 -0 -0 -0 -0 -0 -0 -0 -0 -0 -0 -0 -1 -1 -1 nan
nan -0 0 0 -0 -0 0 -0 -0 -0 0 0 0 -0 0 0 -1 0 -1 -0 0 0 0 0 0 -0 -0 -0 -0 -0 -0 -0 -0 -0 -0 -0 -0 -0 -0 -0 -1 -1 -1 nan
nan 0 0 0 -0 -0 -0 0 -0 -0 -0 0 -0 -0 0 0 -0 1 3 1 0 0 0 0 0 0 0 -0 -0 -0 -0 -0 -0 -0 -0 -0 -0 -1 -0 -0 -0 -0 -0 nan
nan 0 0 0 0 -0 -0 0 -0 -0 -0 0 0 -0 -0 0 -0 -0 1 -0 -0 0 0 0 0 0 0 0 -0 -0 -0 -0 -0 -0 -0 -0 -0 -0 -1 -1 -1 -0 -1 nan
nan 0 -0 0 0 0 0 -0 -0 -0 0 0 -0 -0 0 0 0 -0 -1 -0 0 0 -0 0 0 0 0 0 0 -0 -0 -0 -0 -0 -0 -1 -1 -0 -1 -1 -1 -1 -1 nan
nan -0 0 0 0 0 0 -0 -0 0 0 0 0 -0 -0 -0 -0 -0 -1 -0 -0 -0 0 0 0 0 0 0 0 -0 -0 -0 -0 -0 -0 -0 -1 -1 -0 -1 -1 -1 -1 nan
nan -0 0 0 -0 -0 0 0 -0 -0 0 -0 0 -0 0 -0 0 -0 -0 -0 0 1 1 0 0 0 0 0 0 -0 -0 -0 -0 -1 -0 -0 -0 -1 -1 -1 -1 -1 -1 nan
nan -0 -0 0 0 -0 0 0 0 -0 -0 -0 -0 -0 0 -0 0 0 -0 0 1 1 1 1 1 0 0 0 0 -0 -0 -0 -1 -1 -1 -1 -1 -1 -1 -1 -1 -1 -1 nan
nan -0 -0 -0 0 -0 -0 -0 0 0 -0 -0 -0 0 -0 0 0 -0 -0 0 1 1 1 1 1 1 1 0 -0 -0 -0 -0 -1 -1 -1 -1 -1 -0 -1 -1 -1 -1 -0 nan
nan 0 0 -0 -0 0 0 0 -0 0 0 0 0 -0 -0 -0 -0 -0 -0 0 0 0 0 1 1 1 0 0 -0 -0 -1 -0 -0 -1 -1 -1 -1 -0 -0 -1 -1 -1 -1 nan
nan 0 0 0 -0 0 0 0 -0 0 0 0 0 0 -0 -0 0 0 0 0 -0 0 1 1 1 0 0 -0 -0 -1 -0 -0 -0 -0 -0 -0 -1 -1 -1 -1 -1 -1 -1 nan
nan -0 0 0 0 0 0 0 0 -0 -0 0 -0 0 0 0 0 0 -0 0 0 1 2 1 1 0 0 -0 -0 -0 -0 -0 -0 -0 -0 -0 -0 -0 -1 -1 -1 -1 -1 nan
nan 0 0 0 0 -0 0 -0 -0 -0 -0 -0 0 -0 -0 0 -0 -0 -0 0 0 2 2 1 0 0 0 -0 -0 -0 -0 -0 -0 -0 -0 -0 -0 -0 -0 -0 -1 -1 -1 nan
nan 0 -0 -0 0 -0 0 0 -0 -0 0 -0 0 -0 -0 -0 -0 -0 -1 -0 0 1 1 0 0 0 0 -0 -0 -0 -0 -0 -0 -0 -0 -0 -0 -1 -0 -1 -1 -0 -1 nan
nan -0 0 -0 -0 -0 -0 -0 0 -0 0 -0 0 -0 -0 -0 -0 0 -0 0 0 0 0 0 1 0 0 -0 -0 0 -0 -0 -0 -0 -0 -0 -0 -0 -0 -0 -0 -1 -0 nan
nan -0 0 0 0 -0 -0 0 0 -0 0 -0 -0 0 -0 0 0 -0 0 1 0 0 1 1 0 0 -0 0 -0 -0 0 -0 -0 -0 -0 -0 -0 0 -0 -0 -0 -1 -1 nan
nan -0 -0 -0 0 -0 0 0 0 -0 -0 0 -0 0 0 0 0 0 0 1 1 0 0 0 0 0 0 -0 -0 -0 -0 -0 -0 -0 -0 -0 -0 -0 -0 -0 -1 -1 -1 nan
nan 0 0 -0 0 0 1 0 0 0 0 0 0 0 0 0 -0 -0 0 1 1 1 1 0 0 0 0 -0 0 0 -0 -0 -0 -0 -0 -0 -0 -0 -0 0 -0 -1 -1 nan
nan 0 0 -0 -0 0 0 0 0 0 0 0 0 0 0 0 0 0 0 1 1 0 0 0 0 0 -0 0 0 0 -0 -0 -0 -0 -0 -0 -0 -0 -1 -0 1 0 0 nan
nan nan nan nan nan nan nan nan nan nan nan nan nan nan nan nan nan nan nan nan nan nan nan nan nan nan nan nan nan nan nan nan nan nan nan nan nan nan nan nan nan nan nan nan
Wind_Speed
16 7 15 12 11 3 4 4 3 5 6 5 8 10 15 10 12 7 14 13 12 11 11 11 11 11 10 10 7 7 8 8 9 12 19 21 22 22 22 24 25 25 24 25
7 16 15 7 4 5 3 2 5 8 4 4 3 9 10 4 5 10 17 14 11 12 11 12 12 13 15 14 13 10 9 9 8 3 6 13 18 19 18 19 18 17 20 22
13 10 10 14 7 7 4 4 4 6 8 4 5 7 5 2 2 9 10 11 11 10 11 12 12 15 15 16 17 16 15 13 12 10 7 4 6 8 10 12 12 13 14 16
10 9 12 10 9 10 11 8 3 6 4 3 3 5 5 4 4 4 9 12 12 11 10 12 13 14 15 17 15 14 14 14 14 11 8 7 7 7 9 10 10 9 9 10
6 9 14 13 7 8 8 6 6 5 4 3 2 2 6 3 7 8 9 13 13 12 10 12 13 13 14 13 13 12 12 13 14 13 13 12 11 11 8 7 8 9 10 12
5 11 13 14 5 10 3 4 5 3 2 2 7 7 5 5 11 5 6 14 15 14 12 11 11 11 11 9 9 10 11 12 11 11 11 11 10 10 9 10 13 15 17 19
3 6 6 8 6 4 5 5 1 2 1 5 1 3 9 4 7 11 13 20 18 14 12 11 10 8 7 7 8 8 9 9 10 10 11 12 12 12 14 16 19 21 24 26
5 7 10 5 8 8 8 8 5 6 4 4 4 6 5 6 11 16 29 25 19 15 12 10 9 6 5 4 5 6 9 9 10 12 13 13 13 14 16 18 20 22 24 26
5 3 3 2 4 9 5 4 5 3 1 1 4 7 3 6 5 13 24 25 21 16 12 11 9 6 4 3 4 6 8 9 11 13 13 14 15 18 20 22 24 26 28 30
6 5 2 2 4 4 6 7 3 2 3 4 4 5 5 2 3 5 10 23 22 16 13 12 10 7 5 1 1 3 6 10 12 13 14 16 18 20 23 26 29 31 32 33
5 4 1 4 4 7 3 2 5 4 4 3 2 6 5 5 8 12 11 26 22 16 14 12 11 9 7 4 2 4 7 10 12 14 16 19 22 25 28 29 30 31 31 32
2 5 5 2 0 3 2 7 6 4 4 2 3 5 4 4 7 12 18 13 12 12 14 14 13 11 9 7 5 5 8 11 13 15 19 23 26 28 28 28 29 30 32 33
6 1 4 3 4 3 4 5 4 4 3 5 5 5 3 4 7 6 6 10 14 17 19 16 15 13 12 9 5 7 10 13 17 21 24 26 27 26 27 28 30 30 30 30
6 3 6 8 5 5 5 5 5 6 4 4 6 4 2 6 5 1 2 6 11 18 19 19 18 15 11 8 6 7 10 14 19 23 24 24 23 25 26 27 27 27 27 29
3 4 3 3 4 4 4 6 9 7 5 6 3 6 2 1 5 8 11 10 11 21 22 21 18 15 11 4 3 8 13 18 21 22 21 22 24 25 25 26 26 27 28 29
3 2 2 1 4 4 1 2 6 3 3 3 3 4 3 3 2 2 4 6 15 21 22 19 17 13 6 2 6 13 18 21 22 22 21 23 25 25 25 25 26 27 29 31
3 5 3 2 2 3 4 8 7 4 4 6 5 3 2 3 4 3 1 6 14 19 22 21 16 9 4 3 11 18 21 22 21 20 22 24 24 25 25 26 28 30 32 34
4 3 3 3 2 2 2 3 4 6 4 4 6 4 3 4 4 1 2 6 11 20 21 18 13 8 2 8 17 19 20 19 18 21 22 23 24 25 27 29 30 32 34 35
4 4 3 4 4 2 1 4 6 5 1 3 3 2 4 1 1 4 5 7 11 17 18 14 10 5 7 15 20 23 17 17 19 21 22 23 25 27 29 31 32 33 35 36
5 5 3 2 3 6 2 1 4 4 1 2 4 3 2 2 2 4 7 6 6 9 14 11 7 9 12 14 16 15 16 19 21 23 23 24 25 27 29 31 32 34 34 36
2 2 4 2 2 5 4 2 3 4 4 6 8 6 4 3 2 10 10 6 5 7 9 10 10 10 11 15 15 15 18 21 22 22 23 25 26 28 30 31 31 34 36 37
6 6 4 3 2 6 0 3 5 6 10 10 5 3 6 7 7 8 7 7 8 11 12 9 8 10 15 15 15 17 19 21 22 24 25 27 29 30 31 33 35 36 37 38
3 5 5 6 4 1 4 10 14 10 11 4 1 1 3 5 7 8 9 11 12 13 12 11 10 13 13 13 16 18 20 22 24 26 28 29 31 32 33 34 36 38 37 38
1 3 3 3 2 3 11 11 7 5 4 3 4 5 5 5 6 9 12 13 14 14 12 12 14 13 12 14 17 18 20 23 25 28 30 32 34 36 35 36 38 38 37 37
3 5 4 1 2 3 9 4 6 8 7 6 5 6 8 10 10 10 11 12 13 12 13 13 11 11 13 15 17 18 21 24 26 30 33 35 36 36 37 39 39 37 35 28
6 6 4 5 9 5 8 6 5 6 3 3 7 9 12 14 13 12 12 12 14 14 13 11 11 13 15 17 18 18 20 24 28 32 34 34 35 36 38 40 43 38 31 28
Wind_Direction
183 183 194 179 198 159 182 188 222 254 248 219 233 255 268 292 289 175 158 147 127 105 87 79 69 59 49 39 17 341 337 330 322 291 272 270 274 279 283 290 295 297 297 297
166 210 204 171 155 161 184 204 266 293 332 185 278 263 270 277 234 195 164 150 134 114 101 86 78 71 63 59 54 49 33 16 13 355 279 269 275 281 291 296 299 299 294 295
202 181 161 186 185 188 219 202 242 228 320 295 331 293 268 240 145 173 162 144 132 120 105 96 85 74 68 59 49 43 37 29 24 25 23 328 290 293 293 304 311 314 314 309
222 188 161 190 205 182 224 201 206 276 314 251 26 282 292 217 184 200 161 148 140 128 111 100 93 84 71 63 55 48 45 43 44 37 25 22 28 23 23 10 4 356 341 334
182 159 174 198 193 164 223 152 200 231 228 352 301 332 264 140 223 212 195 162 143 131 125 111 99 87 77 69 61 57 53 52 48 46 48 49 53 54 42 28 8 2 353 342
160 182 186 192 189 181 130 89 53 65 73 285 224 178 262 199 217 172 183 174 150 143 135 119 106 95 84 76 61 47 38 45 44 41 43 40 36 27 8 358 347 341 334 330
123 181 172 138 136 125 105 114 337 321 305 228 158 160 259 243 233 185 176 175 160 152 144 135 124 108 93 69 53 43 36 42 37 27 22 18 11 360 353 347 342 335 331 327
161 172 159 192 158 167 172 163 164 201 205 255 102 235 249 276 287 193 177 167 161 160 156 142 130 120 99 76 58 41 27 26 21 13 9 2 354 350 346 341 336 332 327 324
135 185 113 124 130 150 183 173 176 83 55 21 230 290 280 356 43 140 156 166 172 170 162 150 142 149 139 111 61 24 9 8 2 0 356 352 348 342 339 333 328 325 324 323
200 96 35 139 112 41 141 164 93 29 240 247 281 280 249 309 183 142 151 177 183 179 161 156 162 176 177 169 31 351 355 353 352 348 345 343 337 333 331 327 325 323 323 323
150 97 238 120 195 163 101 137 62 127 147 198 292 270 223 240 194 178 179 189 188 181 170 171 187 191 195 194 226 309 332 340 340 341 339 335 332 331 329 327 326 327 327 328
175 121 126 178 269 152 144 167 155 140 221 215 161 276 330 293 163 175 192 199 196 190 183 195 195 189 193 213 243 295 328 333 335 337 339 337 332 327 325 327 330 331 330 330
171 44 98 49 10 359 191 192 148 116 97 195 151 266 336 48 121 166 199 206 207 200 196 191 193 200 206 213 250 311 326 337 344 341 334 327 325 327 329 330 330 330 330 332
114 130 157 188 196 147 177 180 171 150 150 178 220 282 349 75 112 180 249 254 228 203 199 200 195 195 206 226 268 318 339 339 334 329 325 323 325 327 329 330 331 333 336 337
121 123 117 85 127 134 178 181 173 182 171 177 226 196 270 219 242 269 287 271 220 198 197 200 201 205 213 225 323 334 329 328 329 325 323 326 327 328 330 332 335 336 336 336
17 125 111 77 49 70 129 172 169 190 204 244 218 264 253 36 7 342 292 245 209 201 205 205 204 207 200 246 327 337 336 331 326 324 324 327 327 328 330 332 333 332 331 332
96 130 111 208 53 62 312 216 187 178 193 159 191 192 17 45 91 78 14 240 225 212 210 210 207 202 200 321 339 337 335 328 321 321 325 326 327 328 330 333 334 334 334 333
115 88 72 151 76 189 223 315 157 128 65 116 92 100 131 163 146 152 302 248 235 227 216 207 202 196 225 333 336 335 329 318 319 323 326 327 329 331 333 333 333 333 332 332
46 118 120 166 194 298 47 187 149 160 118 30 91 70 68 71 330 303 287 267 250 233 214 206 200 220 306 328 334 330 319 321 321 322 326 329 331 330 330 330 331 331 330 329
45 69 105 87 150 215 186 149 96 95 222 348 128 91 36 124 29 250 328 324 285 223 211 204 231 274 304 319 324 321 317 317 318 324 329 329 328 327 328 328 329 329 329 328
98 35 151 150 219 289 248 225 100 124 195 139 119 114 90 144 219 329 333 294 232 207 206 228 245 282 311 326 325 315 318 317 321 323 325 326 327 326 326 326 327 329 331 330
162 145 175 99 108 263 258 88 168 144 137 142 131 50 6 352 330 308 278 247 224 219 222 235 278 311 318 318 315 312 314 316 319 323 325 326 326 326 327 327 330 332 330 330
193 179 175 180 217 227 67 123 126 133 147 171 334 300 268 267 283 290 281 260 239 237 252 270 288 306 310 311 307 312 317 318 323 324 324 325 326 326 326 327 328 330 332 332
212 169 145 125 176 141 134 125 135 153 150 190 238 245 259 274 301 297 280 259 251 254 265 276 292 296 298 303 310 316 321 322 320 320 323 326 325 325 326 326 330 331 330 329
201 142 158 283 154 124 183 180 187 197 221 234 255 264 263 274 290 292 276 262 261 264 274 286 285 287 299 307 313 319 319 316 318 322 324 324 323 323 323 324 327 327 325 321
190 179 169 215 177 150 173 179 195 200 217 263 298 293 283 282 280 279 279 284 279 277 277 273 280 296 304 308 315 319 318 319 320 320 321 320 319 321 322 322 321 324 324 318
Height
1478 1488 1489 1496 1500 1499 1504 1507 1508 1504 1496 1498 1495 1490 1480 1477 1477 1477 1476 1477 1479 1480 1482 1480 1478 1476 1475 1474 1474 1472 1471 1471 1472 1472 1473 1474 1475 1477 1477 1478 1477 1476 1475 1474
1485 1483 1483 1492 1497 1501 1503 1506 1509 1501 1493 1495 1489 1488 1479 1476 1476 1476 1474 1477 1480 1480 1481 1480 1479 1478 1477 1477 1476 1474 1473 1471 1471 1470 1471 1471 1472 1474 1474 1474 1473 1472 1471 1469
1476 1479 1483 1490 1497 1502 1503 1507 1508 1507 1498 1491 1491 1490 1479 1475 1475 1477 1478 1478 1480 1481 1482 1481 1481 1479 1479 1478 1477 1476 1474 1473 1471 1471 1470 1470 1471 1471 1471 1471 1470 1469 1467 1465
1478 1477 1482 1491 1496 1497 1504 1499 1501 1504 1508 1512 1496 1510 1485 1477 1478 1478 1477 1478 1480 1481 1483 1482 1481 1481 1480 1480 1480 1479 1477 1475 1474 1472 1471 1470 1471 1471 1471 1471 1469 1468 1466 1464
1471 1473 1481 1488 1487 1492 1498 1494 1500 1503 1506 1506 1502 1510 1484 1478 1481 1477 1477 1478 1479 1480 1483 1482 1482 1482 1482 1483 1482 1481 1480 1478 1476 1475 1474 1473 1472 1472 1472 1471 1470 1468 1466 1463
1470 1471 1477 1474 1484 1488 1489 1497 1503 1508 1512 1518 1503 1503 1485 1482 1468 1474 1475 1477 1477 1479 1483 1483 1483 1483 1483 1483 1483 1483 1481 1479 1479 1477 1476 1475 1474 1473 1472 1470 1468 1466 1463 1460
1472 1478 1473 1474 1484 1487 1493 1502 1521 1521 1521 1516 1498 1503 1472 1464 1463 1462 1468 1473 1476 1479 1482 1483 1483 1484 1484 1483 1484 1483 1482 1481 1480 1479 1478 1476 1474 1473 1471 1469 1466 1463 1459 1456
1477 1478 1470 1469 1473 1485 1493 1492 1511 1516 1520 1509 1500 1498 1470 1462 1459 1458 1464 1470 1476 1479 1482 1483 1483 1484 1484 1484 1484 1484 1484 1483 1481 1480 1478 1477 1475 1473 1471 1468 1464 1461 1457 1453
1470 1471 1466 1466 1467 1472 1487 1493 1490 1499 1505 1511 1495 1479 1464 1463 1460 1459 1464 1470 1474 1478 1481 1483 1483 1484 1484 1484 1484 1485 1484 1483 1481 1480 1478 1476 1474 1471 1468 1465 1462 1458 1453 1448
1454 1473 1466 1467 1467 1471 1474 1479 1496 1506 1507 1506 1497 1489 1476 1465 1466 1464 1467 1469 1473 1477 1480 1482 1483 1483 1483 1484 1485 1485 1484 1483 1481 1479 1477 1475 1472 1470 1467 1463 1458 1453 1449 1444
1450 1460 1473 1468 1471 1475 1480 1485 1490 1494 1503 1504 1506 1488 1465 1461 1462 1463 1465 1467 1472 1476 1479 1480 1481 1482 1483 1484 1484 1484 1483 1482 1480 1478 1476 1474 1471 1467 1463 1459 1454 1449 1445 1440
1445 1461 1478 1471 1468 1469 1471 1477 1482 1496 1497 1505 1506 1488 1464 1459 1459 1464 1466 1471 1475 1477 1477 1478 1480 1482 1482 1483 1483 1483 1482 1480 1479 1477 1474 1471 1468 1464 1460 1456 1451 1446 1442 1438
1442 1460 1479 1474 1474 1472 1472 1473 1476 1483 1489 1498 1499 1485 1463 1460 1462 1467 1470 1472 1473 1473 1474 1476 1479 1480 1481 1482 1482 1481 1480 1479 1477 1475 1471 1468 1464 1460 1456 1452 1448 1444 1439 1434
1441 1455 1461 1465 1465 1466 1472 1470 1473 1475 1491 1489 1489 1474 1464 1466 1467 1468 1469 1470 1469 1470 1472 1474 1476 1479 1480 1480 1481 1480 1479 1477 1475 1472 1468 1464 1460 1457 1453 1449 1445 1440 1435 1430
1441 1452 1454 1456 1456 1457 1460 1463 1469 1473 1473 1478 1471 1476 1466 1466 1468 1468 1467 1466 1466 1467 1471 1473 1476 1477 1478 1479 1479 1477 1476 1475 1472 1469 1465 1460 1457 1454 1450 1445 1441 1436 1431 1427
1442 1456 1452 1460 1459 1458 1459 1460 1466 1468 1468 1471 1471 1472 1465 1465 1465 1466 1466 1465 1465 1467 1470 1473 1475 1476 1477 1477 1477 1475 1473 1472 1469 1466 1462 1458 1454 1451 1447 1442 1437 1433 1428 1423
1446 1453 1458 1461 1462 1460 1466 1460 1463 1464 1464 1463 1470 1465 1465 1467 1467 1466 1466 1466 1466 1467 1469 1470 1472 1474 1475 1475 1474 1473 1471 1468 1466 1464 1459 1455 1452 1448 1443 1439 1434 1429 1423 1417
1448 1453 1460 1465 1465 1475 1452 1452 1453 1458 1462 1461 1463 1465 1465 1466 1466 1466 1465 1465 1464 1465 1467 1469 1470 1472 1472 1472 1471 1470 1468 1466 1464 1461 1456 1452 1448 1444 1439 1435 1430 1425 1419 1413
1445 1454 1467 1464 1467 1459 1453 1451 1455 1453 1466 1463 1463 1465 1466 1465 1465 1465 1465 1464 1463 1464 1466 1468 1469 1469 1470 1469 1468 1467 1465 1463 1461 1457 1453 1449 1444 1440 1435 1431 1425 1420 1414 1407
1449 1451 1454 1477 1471 1460 1449 1447 1447 1449 1467 1463 1463 1465 1464 1465 1470 1467 1463 1461 1461 1462 1464 1466 1468 1468 1467 1466 1465 1463 1461 1459 1457 1453 1449 1445 1441 1436 1432 1426 1420 1415 1409 1403
1458 1460 1461 1465 1465 1458 1448 1447 1449 1461 1465 1461 1462 1464 1464 1465 1464 1462 1461 1461 1461 1463 1464 1465 1465 1465 1464 1462 1460 1459 1457 1455 1452 1449 1445 1441 1437 1432 1427 1421 1416 1410 1403 1396
1453 1462 1463 1469 1467 1461 1446 1448 1454 1456 1458 1460 1461 1461 1460 1460 1461 1461 1461 1460 1461 1461 1461 1462 1463 1462 1460 1459 1457 1455 1453 1450 1448 1444 1440 1437 1432 1427 1422 1416 1410 1404 1397 1391
1448 1445 1450 1454 1454 1447 1446 1447 1450 1453 1455 1458 1458 1459 1460 1460 1460 1460 1459 1458 1459 1459 1460 1460 1460 1459 1457 1455 1454 1451 1449 1446 1443 1439 1436 1432 1427 1422 1416 1410 1404 1398 1392 1386
1441 1441 1444 1446 1448 1447 1447 1449 1451 1453 1455 1457 1458 1458 1458 1458 1458 1457 1456 1456 1457 1458 1458 1458 1457 1456 1455 1453 1451 1448 1445 1442 1438 1435 1430 1425 1421 1415 1410 1404 1399 1393 1387 1381
1441 1441 1443 1446 1446 1448 1448 1450 1451 1453 1454 1455 1455 1455 1455 1455 1454 1454 1454 1454 1455 1455 1456 1455 1455 1454 1452 1450 1448 1445 1442 1438 1433 1428 1424 1420 1415 1410 1403 1398 1394 1389 1384 1380
1436 1438 1442 1442 1439 1441 1446 1448 1449 1450 1452 1452 1452 1451 1451 1451 1451 1451 1451 1452 1452 1452 1452 1452 1452 1450 1448 1446 1444 1441 1438 1433 1428 1423 1419 1415 1410 1403 1398 1392 1384 1384 1378 1374